Private Wetterstation Sandau
Wetterdaten: Dienstag, 24.01.2012
Datum Zeit Temp. A. Feuchte A. Luftdruck Regen Wind Richtung Richtung Taupunkt Windchill
24.01.2012 00:02 1,2 C 91 % 1013,1 hPa 0,0 l/m 2,2 km/h (1 Bft) O 90 -0,1 C 1,2 C
24.01.2012 00:07 1,1 C 91 % 1012,9 hPa 0,0 l/m 0,0 km/h (0 Bft) O 90 -0,2 C 1,1 C
24.01.2012 00:12 1,1 C 91 % 1013,1 hPa 0,0 l/m 2,5 km/h (1 Bft) O 90 -0,2 C 1,1 C
24.01.2012 00:17 1,1 C 91 % 1013,1 hPa 0,0 l/m 5,4 km/h (1 Bft) O 90 -0,2 C -0,5 C
24.01.2012 00:22 1,1 C 92 % 1013,2 hPa 0,0 l/m 4,3 km/h (1 Bft) O 90 -0,1 C 1,1 C
24.01.2012 00:27 1,1 C 92 % 1013,1 hPa 0,0 l/m 2,9 km/h (1 Bft) O 90 -0,1 C 1,1 C
24.01.2012 00:32 1,1 C 92 % 1013,2 hPa 0,0 l/m 3,2 km/h (1 Bft) O 90 -0,1 C 1,1 C
24.01.2012 00:37 1,1 C 92 % 1013,3 hPa 0,0 l/m 2,9 km/h (1 Bft) O 90 -0,1 C 1,1 C
24.01.2012 00:42 1,1 C 92 % 1013,2 hPa 0,0 l/m 5,8 km/h (2 Bft) O 90 -0,1 C -0,7 C
24.01.2012 00:47 1,0 C 92 % 1013,3 hPa 0,0 l/m 3,2 km/h (1 Bft) O 90 -0,2 C 1,0 C
24.01.2012 00:52 1,0 C 92 % 1013,1 hPa 0,0 l/m 0,0 km/h (0 Bft) O 90 -0,2 C 1,0 C
24.01.2012 00:57 0,9 C 92 % 1013,2 hPa 0,0 l/m 2,5 km/h (1 Bft) O 90 -0,2 C 0,9 C
24.01.2012 01:02 1,0 C 92 % 1013,2 hPa 0,0 l/m 4,3 km/h (1 Bft) O 90 -0,2 C 1,0 C
24.01.2012 01:07 1,0 C 92 % 1013,2 hPa 0,0 l/m 1,1 km/h (1 Bft) O 90 -0,2 C 1,0 C
24.01.2012 01:12 1,0 C 92 % 1013,4 hPa 0,0 l/m 0,0 km/h (0 Bft) O 90 -0,2 C 1,0 C
24.01.2012 01:17 1,1 C 92 % 1013,4 hPa 0,0 l/m 2,2 km/h (1 Bft) O 90 -0,1 C 1,1 C
24.01.2012 01:22 1,1 C 92 % 1013,2 hPa 0,0 l/m 1,4 km/h (1 Bft) O 90 -0,1 C 1,1 C
24.01.2012 01:27 1,1 C 92 % 1013,4 hPa 0,0 l/m 2,9 km/h (1 Bft) O 90 -0,1 C 1,1 C
24.01.2012 01:32 1,1 C 92 % 1013,3 hPa 0,0 l/m 1,8 km/h (1 Bft) O 90 -0,1 C 1,1 C
24.01.2012 01:37 1,1 C 92 % 1013,3 hPa 0,0 l/m 2,2 km/h (1 Bft) O 90 -0,1 C 1,1 C
24.01.2012 01:42 1,1 C 92 % 1013,4 hPa 0,0 l/m 2,5 km/h (1 Bft) O 90 -0,1 C 1,1 C
24.01.2012 01:47 1,1 C 92 % 1013,4 hPa 0,0 l/m 1,4 km/h (1 Bft) O 90 -0,1 C 1,1 C
24.01.2012 01:52 1,1 C 92 % 1013,2 hPa 0,0 l/m 3,2 km/h (1 Bft) O 90 -0,1 C 1,1 C
24.01.2012 01:57 1,1 C 92 % 1013,4 hPa 0,0 l/m 0,0 km/h (0 Bft) O 90 -0,1 C 1,1 C
24.01.2012 02:02 1,1 C 92 % 1013,4 hPa 0,0 l/m 0,0 km/h (0 Bft) O 90 -0,1 C 1,1 C
24.01.2012 02:07 1,2 C 92 % 1013,4 hPa 0,0 l/m 1,4 km/h (1 Bft) O 90 0,0 C 1,2 C
24.01.2012 02:12 1,2 C 92 % 1013,4 hPa 0,0 l/m 1,4 km/h (1 Bft) O 90 0,0 C 1,2 C
24.01.2012 02:17 1,2 C 92 % 1013,5 hPa 0,0 l/m 3,2 km/h (1 Bft) O 90 0,0 C 1,2 C
24.01.2012 02:22 1,3 C 92 % 1013,8 hPa 0,0 l/m 0,0 km/h (0 Bft) O 90 0,1 C 1,3 C
24.01.2012 02:27 1,3 C 92 % 1013,5 hPa 0,0 l/m 0,0 km/h (0 Bft) O 90 0,1 C 1,3 C
24.01.2012 02:32 1,3 C 92 % 1013,5 hPa 0,0 l/m 1,4 km/h (1 Bft) O 90 0,1 C 1,3 C
24.01.2012 02:37 1,3 C 92 % 1013,5 hPa 0,0 l/m 0,0 km/h (0 Bft) O 90 0,1 C 1,3 C
24.01.2012 02:42 1,3 C 92 % 1013,8 hPa 0,0 l/m 0,0 km/h (0 Bft) O 90 0,1 C 1,3 C
24.01.2012 02:47 1,3 C 92 % 1013,7 hPa 0,0 l/m 0,0 km/h (0 Bft) O 90 0,1 C 1,3 C
24.01.2012 02:52 1,3 C 92 % 1013,8 hPa 0,0 l/m 1,8 km/h (1 Bft) O-SO 112 0,1 C 1,3 C
24.01.2012 02:57 1,2 C 92 % 1013,8 hPa 0,0 l/m 1,1 km/h (1 Bft) O 90 0,0 C 1,2 C
24.01.2012 03:02 1,2 C 92 % 1014,0 hPa 0,0 l/m 2,5 km/h (1 Bft) O-SO 112 0,0 C 1,2 C
24.01.2012 03:07 1,2 C 92 % 1014,0 hPa 0,0 l/m 3,2 km/h (1 Bft) O 90 0,0 C 1,2 C
24.01.2012 03:12 1,2 C 92 % 1014,0 hPa 0,0 l/m 3,2 km/h (1 Bft) O 90 0,0 C 1,2 C
24.01.2012 03:17 1,1 C 92 % 1014,1 hPa 0,0 l/m 3,2 km/h (1 Bft) O 90 -0,1 C 1,1 C
24.01.2012 03:22 1,1 C 92 % 1014,1 hPa 0,0 l/m 2,2 km/h (1 Bft) O 90 -0,1 C 1,1 C
24.01.2012 03:27 1,1 C 92 % 1014,2 hPa 0,0 l/m 1,1 km/h (1 Bft) O 90 -0,1 C 1,1 C
24.01.2012 03:32 1,1 C 92 % 1014,3 hPa 0,0 l/m 3,6 km/h (1 Bft) O 90 -0,1 C 1,1 C
24.01.2012 03:37 1,1 C 92 % 1014,3 hPa 0,0 l/m 0,0 km/h (0 Bft) O 90 -0,1 C 1,1 C
24.01.2012 03:42 1,2 C 92 % 1014,4 hPa 0,0 l/m 0,0 km/h (0 Bft) O 90 0,0 C 1,2 C
24.01.2012 03:47 1,2 C 92 % 1014,4 hPa 0,0 l/m 0,0 km/h (0 Bft) O 90 0,0 C 1,2 C
24.01.2012 03:52 1,2 C 92 % 1014,5 hPa 0,0 l/m 2,5 km/h (1 Bft) O 90 0,0 C 1,2 C
24.01.2012 03:57 1,2 C 92 % 1014,6 hPa 0,0 l/m 3,6 km/h (1 Bft) O 90 0,0 C 1,2 C
24.01.2012 04:02 1,2 C 92 % 1014,6 hPa 0,0 l/m 4,0 km/h (1 Bft) O 90 0,0 C 1,2 C
24.01.2012 04:07 1,2 C 92 % 1014,5 hPa 0,0 l/m 2,2 km/h (1 Bft) O 90 0,0 C 1,2 C
24.01.2012 04:12 1,1 C 92 % 1014,6 hPa 0,0 l/m 3,6 km/h (1 Bft) O 90 -0,1 C 1,1 C
24.01.2012 04:17 1,1 C 92 % 1014,7 hPa 0,0 l/m 3,2 km/h (1 Bft) O 90 -0,1 C 1,1 C
24.01.2012 04:22 1,0 C 92 % 1014,6 hPa 0,0 l/m 4,0 km/h (1 Bft) O 90 -0,2 C 1,0 C
24.01.2012 04:27 0,9 C 92 % 1014,8 hPa 0,0 l/m 2,2 km/h (1 Bft) O 90 -0,2 C 0,9 C
24.01.2012 04:32 1,0 C 92 % 1014,8 hPa 0,5 l/m 5,0 km/h (1 Bft) O 90 -0,2 C -0,5 C
24.01.2012 04:37 1,0 C 92 % 1014,8 hPa 0,0 l/m 2,9 km/h (1 Bft) O 90 -0,2 C 1,0 C
24.01.2012 04:42 1,0 C 92 % 1014,9 hPa 0,0 l/m 5,4 km/h (1 Bft) O-NO 67 -0,2 C -0,6 C
24.01.2012 04:47 1,0 C 92 % 1014,9 hPa 0,0 l/m 4,0 km/h (1 Bft) O 90 -0,2 C 1,0 C
24.01.2012 04:52 1,0 C 92 % 1014,8 hPa 0,0 l/m 6,8 km/h (2 Bft) O 90 -0,2 C -1,2 C
24.01.2012 04:57 1,0 C 92 % 1014,9 hPa 0,0 l/m 4,0 km/h (1 Bft) O 90 -0,2 C 1,0 C
24.01.2012 05:02 1,0 C 92 % 1014,9 hPa 0,0 l/m 2,5 km/h (1 Bft) O 90 -0,2 C 1,0 C
24.01.2012 05:07 1,0 C 92 % 1014,9 hPa 0,0 l/m 4,0 km/h (1 Bft) O 90 -0,2 C 1,0 C
24.01.2012 05:12 0,9 C 92 % 1015,0 hPa 0,0 l/m 2,5 km/h (1 Bft) O-NO 67 -0,2 C 0,9 C
24.01.2012 05:17 0,9 C 92 % 1015,0 hPa 0,0 l/m 4,0 km/h (1 Bft) O 90 -0,2 C 0,9 C
24.01.2012 05:22 0,9 C 93 % 1015,0 hPa 0,0 l/m 3,6 km/h (1 Bft) O 90 -0,1 C 0,9 C
24.01.2012 05:27 0,9 C 93 % 1015,2 hPa 0,0 l/m 1,4 km/h (1 Bft) O 90 -0,1 C 0,9 C
24.01.2012 05:32 0,9 C 93 % 1015,2 hPa 0,0 l/m 1,4 km/h (1 Bft) O 90 -0,1 C 0,9 C
24.01.2012 05:37 0,9 C 93 % 1015,1 hPa 0,0 l/m 2,5 km/h (1 Bft) O 90 -0,1 C 0,9 C
24.01.2012 05:42 0,9 C 93 % 1015,3 hPa 0,0 l/m 1,4 km/h (1 Bft) O 90 -0,1 C 0,9 C
24.01.2012 05:47 0,9 C 93 % 1015,2 hPa 0,0 l/m 3,6 km/h (1 Bft) O 90 -0,1 C 0,9 C
24.01.2012 05:52 0,9 C 93 % 1015,4 hPa 0,0 l/m 0,0 km/h (0 Bft) O 90 -0,1 C 0,9 C
24.01.2012 05:57 0,9 C 93 % 1015,3 hPa 0,0 l/m 0,0 km/h (0 Bft) O 90 -0,1 C 0,9 C
24.01.2012 06:02 0,9 C 93 % 1015,3 hPa 0,0 l/m 1,8 km/h (1 Bft) O 90 -0,1 C 0,9 C
24.01.2012 06:07 0,9 C 93 % 1015,4 hPa 0,0 l/m 2,9 km/h (1 Bft) O 90 -0,1 C 0,9 C
24.01.2012 06:12 0,9 C 93 % 1015,5 hPa 0,0 l/m 1,4 km/h (1 Bft) O 90 -0,1 C 0,9 C
24.01.2012 06:17 0,9 C 93 % 1015,4 hPa 0,0 l/m 2,5 km/h (1 Bft) O 90 -0,1 C 0,9 C
24.01.2012 06:22 0,9 C 93 % 1015,6 hPa 0,0 l/m 1,4 km/h (1 Bft) O 90 -0,1 C 0,9 C
24.01.2012 06:27 0,9 C 93 % 1015,6 hPa 0,0 l/m 0,0 km/h (0 Bft) O 90 -0,1 C 0,9 C
24.01.2012 06:32 0,9 C 93 % 1015,9 hPa 0,0 l/m 4,0 km/h (1 Bft) O 90 -0,1 C 0,9 C
24.01.2012 06:37 0,9 C 93 % 1015,9 hPa 0,0 l/m 2,2 km/h (1 Bft) O 90 -0,1 C 0,9 C
24.01.2012 06:42 1,0 C 93 % 1015,8 hPa 0,0 l/m 0,0 km/h (0 Bft) O 90 -0,0 C 1,0 C
24.01.2012 06:47 1,0 C 93 % 1015,9 hPa 0,0 l/m 1,4 km/h (1 Bft) O 90 -0,0 C 1,0 C
24.01.2012 06:52 1,1 C 93 % 1015,9 hPa 0,0 l/m 3,6 km/h (1 Bft) O 90 0,1 C 1,1 C
24.01.2012 06:57 1,1 C 93 % 1016,0 hPa 0,0 l/m 0,0 km/h (0 Bft) O 90 0,1 C 1,1 C
24.01.2012 07:02 1,1 C 93 % 1016,0 hPa 0,0 l/m 2,5 km/h (1 Bft) O-SO 112 0,1 C 1,1 C
24.01.2012 07:07 1,1 C 93 % 1016,2 hPa 0,0 l/m 0,0 km/h (0 Bft) O 90 0,1 C 1,1 C
24.01.2012 07:12 1,1 C 93 % 1016,1 hPa 0,0 l/m 1,1 km/h (1 Bft) O 90 0,1 C 1,1 C
24.01.2012 07:17 1,1 C 93 % 1016,3 hPa 0,0 l/m 0,0 km/h (0 Bft) O 90 0,1 C 1,1 C
24.01.2012 07:22 1,2 C 93 % 1016,5 hPa 0,0 l/m 3,6 km/h (1 Bft) O 90 0,2 C 1,2 C
24.01.2012 07:27 1,3 C 93 % 1016,4 hPa 0,0 l/m 0,0 km/h (0 Bft) O 90 0,3 C 1,3 C
24.01.2012 07:32 1,2 C 92 % 1016,7 hPa 0,0 l/m 0,0 km/h (0 Bft) O 90 0,0 C 1,2 C
24.01.2012 07:37 1,3 C 92 % 1016,5 hPa 0,0 l/m 0,0 km/h (0 Bft) O 90 0,1 C 1,3 C
24.01.2012 07:42 1,2 C 92 % 1016,8 hPa 0,0 l/m 0,0 km/h (0 Bft) O 90 0,0 C 1,2 C
24.01.2012 07:47 1,3 C 92 % 1016,8 hPa 0,0 l/m 1,4 km/h (1 Bft) O 90 0,1 C 1,3 C
24.01.2012 07:52 1,3 C 92 % 1016,8 hPa 0,0 l/m 0,0 km/h (0 Bft) O 90 0,1 C 1,3 C
24.01.2012 07:57 1,3 C 92 % 1016,9 hPa 0,0 l/m 0,0 km/h (0 Bft) O 90 0,1 C 1,3 C
24.01.2012 08:02 1,3 C 92 % 1017,2 hPa 0,0 l/m 2,5 km/h (1 Bft) O 90 0,1 C 1,3 C
24.01.2012 08:07 1,3 C 92 % 1017,0 hPa 0,0 l/m 0,0 km/h (0 Bft) O 90 0,1 C 1,3 C
24.01.2012 08:12 1,3 C 92 % 1017,1 hPa 0,0 l/m 0,0 km/h (0 Bft) O 90 0,1 C 1,3 C
24.01.2012 08:17 1,3 C 92 % 1017,4 hPa 0,0 l/m 1,8 km/h (1 Bft) O 90 0,1 C 1,3 C
24.01.2012 08:22 1,3 C 92 % 1017,2 hPa 0,0 l/m 0,0 km/h (0 Bft) O 90 0,1 C 1,3 C
24.01.2012 08:27 1,3 C 92 % 1017,4 hPa 0,0 l/m 0,0 km/h (0 Bft) O 90 0,1 C 1,3 C
24.01.2012 08:32 1,3 C 92 % 1017,5 hPa 0,0 l/m 0,0 km/h (0 Bft) O 90 0,1 C 1,3 C
24.01.2012 08:37 1,3 C 92 % 1017,4 hPa 0,0 l/m 0,0 km/h (0 Bft) O 90 0,1 C 1,3 C
24.01.2012 08:42 1,3 C 92 % 1017,5 hPa 0,0 l/m 0,0 km/h (0 Bft) O 90 0,1 C 1,3 C
24.01.2012 08:47 1,3 C 92 % 1017,5 hPa 0,0 l/m 0,0 km/h (0 Bft) O 90 0,1 C 1,3 C
24.01.2012 08:52 1,3 C 92 % 1017,8 hPa 0,0 l/m 1,4 km/h (1 Bft) O 90 0,1 C 1,3 C
24.01.2012 08:57 1,3 C 92 % 1017,7 hPa 0,0 l/m 0,0 km/h (0 Bft) O 90 0,1 C 1,3 C
24.01.2012 09:02 1,3 C 92 % 1017,9 hPa 0,0 l/m 0,0 km/h (0 Bft) O 90 0,1 C 1,3 C
24.01.2012 09:07 1,3 C 92 % 1017,9 hPa 0,0 l/m 0,0 km/h (0 Bft) O 90 0,1 C 1,3 C
24.01.2012 09:12 1,3 C 92 % 1018,0 hPa 0,0 l/m 0,0 km/h (0 Bft) O 90 0,1 C 1,3 C
24.01.2012 09:17 1,3 C 92 % 1018,1 hPa 0,0 l/m 1,1 km/h (1 Bft) O 90 0,1 C 1,3 C
24.01.2012 09:22 1,3 C 92 % 1018,1 hPa 0,0 l/m 3,2 km/h (1 Bft) O 90 0,1 C 1,3 C
24.01.2012 09:27 1,3 C 92 % 1018,0 hPa 0,5 l/m 2,5 km/h (1 Bft) O 90 0,1 C 1,3 C
24.01.2012 09:32 1,3 C 92 % 1018,1 hPa 0,0 l/m 1,1 km/h (1 Bft) O 90 0,1 C 1,3 C
24.01.2012 09:37 1,3 C 92 % 1018,2 hPa 0,0 l/m 1,4 km/h (1 Bft) O 90 0,1 C 1,3 C
24.01.2012 09:42 1,3 C 92 % 1018,2 hPa 0,0 l/m 0,0 km/h (0 Bft) O 90 0,1 C 1,3 C
24.01.2012 09:47 1,3 C 92 % 1018,3 hPa 0,0 l/m 3,2 km/h (1 Bft) O 90 0,1 C 1,3 C
24.01.2012 09:52 1,4 C 92 % 1018,4 hPa 0,0 l/m 2,2 km/h (1 Bft) O 90 0,2 C 1,4 C
24.01.2012 09:57 1,4 C 92 % 1018,3 hPa 0,0 l/m 0,0 km/h (0 Bft) O 90 0,2 C 1,4 C
24.01.2012 10:02 1,5 C 92 % 1018,4 hPa 0,0 l/m 2,9 km/h (1 Bft) O-SO 112 0,3 C 1,5 C
24.01.2012 10:07 1,5 C 92 % 1018,4 hPa 0,0 l/m 1,8 km/h (1 Bft) O-NO 67 0,3 C 1,5 C
24.01.2012 10:12 1,5 C 92 % 1018,6 hPa 0,0 l/m 3,6 km/h (1 Bft) O-NO 67 0,3 C 1,5 C
24.01.2012 10:17 1,5 C 92 % 1018,6 hPa 0,0 l/m 1,8 km/h (1 Bft) O 90 0,3 C 1,5 C
24.01.2012 10:22 1,5 C 92 % 1018,5 hPa 0,0 l/m 2,2 km/h (1 Bft) O 90 0,3 C 1,5 C
24.01.2012 10:27 1,6 C 92 % 1018,6 hPa 0,0 l/m 4,0 km/h (1 Bft) O-SO 112 0,4 C 1,6 C
24.01.2012 10:32 1,6 C 92 % 1018,7 hPa 0,0 l/m 1,8 km/h (1 Bft) O 90 0,4 C 1,6 C
24.01.2012 10:37 1,6 C 92 % 1018,8 hPa 0,0 l/m 4,7 km/h (1 Bft) O 90 0,4 C 0,4 C
24.01.2012 10:42 1,6 C 92 % 1018,8 hPa 0,0 l/m 2,2 km/h (1 Bft) O 90 0,4 C 1,6 C
24.01.2012 10:47 1,8 C 92 % 1018,9 hPa 0,0 l/m 0,0 km/h (0 Bft) O 90 0,6 C 1,8 C
24.01.2012 10:52 1,8 C 92 % 1019,0 hPa 0,0 l/m 2,2 km/h (1 Bft) O 90 0,6 C 1,8 C
24.01.2012 10:57 1,8 C 92 % 1019,0 hPa 0,5 l/m 2,2 km/h (1 Bft) O 90 0,6 C 1,8 C
24.01.2012 11:02 1,8 C 92 % 1019,0 hPa 0,0 l/m 0,0 km/h (0 Bft) O 90 0,6 C 1,8 C
24.01.2012 11:07 1,8 C 91 % 1019,1 hPa 0,0 l/m 2,5 km/h (1 Bft) O 90 0,5 C 1,8 C
24.01.2012 11:12 1,8 C 91 % 1019,1 hPa 0,0 l/m 2,9 km/h (1 Bft) O 90 0,5 C 1,8 C
24.01.2012 11:17 1,8 C 91 % 1019,2 hPa 0,0 l/m 2,5 km/h (1 Bft) O 90 0,5 C 1,8 C
24.01.2012 11:22 1,8 C 91 % 1019,1 hPa 0,0 l/m 2,2 km/h (1 Bft) O-NO 67 0,5 C 1,8 C
24.01.2012 11:27 1,8 C 91 % 1019,4 hPa 0,0 l/m 0,0 km/h (0 Bft) O-NO 67 0,5 C 1,8 C
24.01.2012 11:32 1,8 C 91 % 1019,4 hPa 0,0 l/m 4,3 km/h (1 Bft) O-NO 67 0,5 C 1,8 C
24.01.2012 11:37 1,8 C 91 % 1019,4 hPa 0,0 l/m 0,0 km/h (0 Bft) O-NO 67 0,5 C 1,8 C
24.01.2012 11:42 1,8 C 91 % 1019,4 hPa 0,0 l/m 3,2 km/h (1 Bft) O-NO 67 0,5 C 1,8 C
24.01.2012 11:47 1,8 C 91 % 1019,4 hPa 0,0 l/m 6,1 km/h (2 Bft) O 90 0,5 C 0,0 C
24.01.2012 11:52 1,8 C 91 % 1019,4 hPa 0,0 l/m 4,7 km/h (1 Bft) O-NO 67 0,5 C 0,6 C
24.01.2012 11:57 1,8 C 91 % 1019,4 hPa 0,0 l/m 2,2 km/h (1 Bft) O-NO 67 0,5 C 1,8 C
24.01.2012 12:02 1,8 C 91 % 1019,4 hPa 0,5 l/m 1,4 km/h (1 Bft) O-NO 67 0,5 C 1,8 C
24.01.2012 12:07 1,9 C 91 % 1019,4 hPa 0,0 l/m 2,2 km/h (1 Bft) O-NO 67 0,6 C 1,9 C
24.01.2012 12:12 1,9 C 91 % 1019,6 hPa 0,0 l/m 3,6 km/h (1 Bft) O-NO 67 0,6 C 1,9 C
24.01.2012 12:17 1,9 C 91 % 1019,5 hPa 0,0 l/m 1,8 km/h (1 Bft) O-NO 67 0,6 C 1,9 C
24.01.2012 12:22 1,9 C 91 % 1019,6 hPa 0,0 l/m 4,7 km/h (1 Bft) O-NO 67 0,6 C 0,7 C
24.01.2012 12:27 1,9 C 91 % 1019,6 hPa 0,0 l/m 0,0 km/h (0 Bft) O-NO 67 0,6 C 1,9 C
24.01.2012 12:32 1,9 C 91 % 1019,6 hPa 0,0 l/m 2,9 km/h (1 Bft) O-NO 67 0,6 C 1,9 C
24.01.2012 12:37 1,9 C 91 % 1019,6 hPa 0,0 l/m 2,2 km/h (1 Bft) O-NO 67 0,6 C 1,9 C
24.01.2012 12:42 1,9 C 91 % 1019,7 hPa 0,0 l/m 1,1 km/h (1 Bft) O-NO 67 0,6 C 1,9 C
24.01.2012 12:47 1,9 C 91 % 1019,7 hPa 0,0 l/m 2,5 km/h (1 Bft) O 90 0,6 C 1,9 C
24.01.2012 12:52 1,9 C 91 % 1019,8 hPa 0,0 l/m 2,9 km/h (1 Bft) O 90 0,6 C 1,9 C
24.01.2012 12:57 1,8 C 91 % 1019,8 hPa 0,0 l/m 4,3 km/h (1 Bft) O 90 0,5 C 1,8 C
24.01.2012 13:02 1,8 C 91 % 1019,8 hPa 0,0 l/m 3,6 km/h (1 Bft) O 90 0,5 C 1,8 C
24.01.2012 13:07 1,9 C 91 % 1019,7 hPa 0,0 l/m 2,5 km/h (1 Bft) O-NO 67 0,6 C 1,9 C
24.01.2012 13:12 1,8 C 91 % 1020,0 hPa 0,0 l/m 0,0 km/h (0 Bft) O-NO 67 0,5 C 1,8 C
24.01.2012 13:17 1,9 C 91 % 1019,9 hPa 0,0 l/m 3,2 km/h (1 Bft) O-SO 112 0,6 C 1,9 C
24.01.2012 13:22 1,9 C 90 % 1019,8 hPa 0,0 l/m 3,6 km/h (1 Bft) O 90 0,4 C 1,9 C
24.01.2012 13:27 1,9 C 90 % 1019,9 hPa 0,0 l/m 2,5 km/h (1 Bft) O-NO 67 0,4 C 1,9 C
24.01.2012 13:32 1,9 C 90 % 1019,9 hPa 0,0 l/m 5,0 km/h (1 Bft) O-SO 112 0,4 C 0,6 C
24.01.2012 13:37 1,9 C 90 % 1019,9 hPa 0,0 l/m 0,0 km/h (0 Bft) O 90 0,4 C 1,9 C
24.01.2012 13:42 1,9 C 90 % 1020,0 hPa 0,0 l/m 4,3 km/h (1 Bft) O 90 0,4 C 1,9 C
24.01.2012 13:47 1,9 C 90 % 1020,0 hPa 0,5 l/m 2,2 km/h (1 Bft) O 90 0,4 C 1,9 C
24.01.2012 13:52 1,9 C 90 % 1019,9 hPa 0,0 l/m 4,0 km/h (1 Bft) O 90 0,4 C 1,9 C
24.01.2012 13:57 1,9 C 90 % 1020,0 hPa 0,0 l/m 2,9 km/h (1 Bft) O 90 0,4 C 1,9 C
24.01.2012 14:02 1,9 C 90 % 1019,9 hPa 0,0 l/m 2,9 km/h (1 Bft) O-NO 67 0,4 C 1,9 C
24.01.2012 14:07 1,8 C 90 % 1020,0 hPa 0,0 l/m 0,0 km/h (0 Bft) O 90 0,3 C 1,8 C
24.01.2012 14:12 1,8 C 90 % 1020,1 hPa 0,0 l/m 2,5 km/h (1 Bft) O 90 0,3 C 1,8 C
24.01.2012 14:17 1,8 C 90 % 1020,2 hPa 0,0 l/m 4,0 km/h (1 Bft) O 90 0,3 C 1,8 C
24.01.2012 14:22 1,8 C 90 % 1020,1 hPa 0,0 l/m 2,2 km/h (1 Bft) O 90 0,3 C 1,8 C
24.01.2012 14:27 1,8 C 90 % 1020,2 hPa 0,0 l/m 0,0 km/h (0 Bft) O-NO 67 0,3 C 1,8 C
24.01.2012 14:32 1,8 C 90 % 1020,2 hPa 0,0 l/m 3,6 km/h (1 Bft) O 90 0,3 C 1,8 C
24.01.2012 14:37 1,8 C 90 % 1020,3 hPa 0,0 l/m 1,4 km/h (1 Bft) O 90 0,3 C 1,8 C
24.01.2012 14:42 1,8 C 90 % 1020,4 hPa 0,0 l/m 0,0 km/h (0 Bft) O 90 0,3 C 1,8 C
24.01.2012 14:47 1,8 C 90 % 1020,4 hPa 0,0 l/m 5,0 km/h (1 Bft) O 90 0,3 C 0,5 C
24.01.2012 14:52 1,8 C 90 % 1020,4 hPa 0,0 l/m 0,0 km/h (0 Bft) O 90 0,3 C 1,8 C
24.01.2012 14:57 1,8 C 90 % 1020,4 hPa 0,0 l/m 0,0 km/h (0 Bft) O 90 0,3 C 1,8 C
24.01.2012 15:02 1,8 C 90 % 1020,4 hPa 0,0 l/m 3,2 km/h (1 Bft) O 90 0,3 C 1,8 C
24.01.2012 15:07 1,8 C 90 % 1020,3 hPa 0,0 l/m 1,1 km/h (1 Bft) O 90 0,3 C 1,8 C
24.01.2012 15:12 1,8 C 90 % 1020,4 hPa 0,0 l/m 0,0 km/h (0 Bft) O 90 0,3 C 1,8 C
24.01.2012 15:17 1,8 C 90 % 1020,4 hPa 0,0 l/m 0,0 km/h (0 Bft) O 90 0,3 C 1,8 C
24.01.2012 15:22 1,8 C 90 % 1020,5 hPa 0,0 l/m 0,0 km/h (0 Bft) O 90 0,3 C 1,8 C
24.01.2012 15:27 1,8 C 90 % 1020,5 hPa 0,0 l/m 1,4 km/h (1 Bft) O 90 0,3 C 1,8 C
24.01.2012 15:32 1,8 C 89 % 1020,4 hPa 0,0 l/m 0,0 km/h (0 Bft) O 90 0,2 C 1,8 C
24.01.2012 15:37 1,6 C 89 % 1020,7 hPa 0,0 l/m 1,4 km/h (1 Bft) O 90 -0,0 C 1,6 C
24.01.2012 15:42 1,6 C 89 % 1020,6 hPa 0,0 l/m 2,2 km/h (1 Bft) O-SO 112 -0,0 C 1,6 C
24.01.2012 15:47 1,6 C 89 % 1020,7 hPa 0,0 l/m 2,5 km/h (1 Bft) O-SO 112 -0,0 C 1,6 C
24.01.2012 15:52 1,6 C 89 % 1020,7 hPa 0,0 l/m 0,0 km/h (0 Bft) O-SO 112 -0,0 C 1,6 C
24.01.2012 15:57 1,6 C 89 % 1020,8 hPa 0,0 l/m 0,0 km/h (0 Bft) O-SO 112 -0,0 C 1,6 C
24.01.2012 16:02 1,5 C 89 % 1021,0 hPa 0,0 l/m 1,8 km/h (1 Bft) O-SO 112 -0,1 C 1,5 C
24.01.2012 16:07 1,4 C 89 % 1020,8 hPa 0,0 l/m 2,2 km/h (1 Bft) O-SO 112 -0,2 C 1,4 C
24.01.2012 16:12 1,3 C 89 % 1021,0 hPa 0,0 l/m 4,0 km/h (1 Bft) O 90 -0,3 C 1,3 C
24.01.2012 16:17 1,3 C 89 % 1021,0 hPa 0,0 l/m 0,0 km/h (0 Bft) O 90 -0,3 C 1,3 C
24.01.2012 16:22 1,3 C 89 % 1021,0 hPa 0,0 l/m 0,0 km/h (0 Bft) O 90 -0,3 C 1,3 C
24.01.2012 16:27 1,3 C 89 % 1020,9 hPa 0,0 l/m 0,0 km/h (0 Bft) O 90 -0,3 C 1,3 C
24.01.2012 16:32 1,3 C 89 % 1021,1 hPa 0,0 l/m 0,0 km/h (0 Bft) O 90 -0,3 C 1,3 C
24.01.2012 16:37 1,3 C 89 % 1021,2 hPa 0,0 l/m 0,0 km/h (0 Bft) O 90 -0,3 C 1,3 C
24.01.2012 16:42 1,3 C 89 % 1021,1 hPa 0,0 l/m 0,0 km/h (0 Bft) O 90 -0,3 C 1,3 C
24.01.2012 16:47 1,3 C 89 % 1021,2 hPa 0,0 l/m 0,0 km/h (0 Bft) O 90 -0,3 C 1,3 C
24.01.2012 16:52 1,3 C 89 % 1021,2 hPa 0,0 l/m 1,1 km/h (1 Bft) O-SO 112 -0,3 C 1,3 C
24.01.2012 16:57 1,3 C 89 % 1021,4 hPa 0,0 l/m 0,0 km/h (0 Bft) O-SO 112 -0,3 C 1,3 C
24.01.2012 17:02 1,2 C 89 % 1021,4 hPa 0,0 l/m 0,0 km/h (0 Bft) O-SO 112 -0,4 C 1,2 C
24.01.2012 17:07 1,1 C 89 % 1021,5 hPa 0,0 l/m 0,0 km/h (0 Bft) O-SO 112 -0,5 C 1,1 C
24.01.2012 17:12 1,1 C 89 % 1021,5 hPa 0,0 l/m 3,2 km/h (1 Bft) O-SO 112 -0,5 C 1,1 C
24.01.2012 17:17 1,0 C 89 % 1021,5 hPa 0,0 l/m 0,0 km/h (0 Bft) O-SO 112 -0,6 C 1,0 C
24.01.2012 17:22 1,0 C 89 % 1021,7 hPa 0,0 l/m 1,4 km/h (1 Bft) O-SO 112 -0,6 C 1,0 C
24.01.2012 17:27 0,9 C 89 % 1021,5 hPa 0,0 l/m 4,0 km/h (1 Bft) O 90 -0,7 C 0,9 C
24.01.2012 17:32 0,9 C 89 % 1021,8 hPa 0,0 l/m 1,1 km/h (1 Bft) O 90 -0,7 C 0,9 C
24.01.2012 17:37 0,8 C 89 % 1021,7 hPa 0,0 l/m 0,0 km/h (0 Bft) O 90 -0,8 C 0,8 C
24.01.2012 17:42 0,6 C 89 % 1021,9 hPa 0,0 l/m 1,1 km/h (1 Bft) O 90 -1,0 C 0,6 C
24.01.2012 17:47 0,6 C 89 % 1021,9 hPa 0,0 l/m 1,8 km/h (1 Bft) O 90 -1,0 C 0,6 C
24.01.2012 17:52 0,6 C 89 % 1022,0 hPa 0,0 l/m 0,0 km/h (0 Bft) O 90 -1,0 C 0,6 C
24.01.2012 17:57 0,5 C 89 % 1022,0 hPa 0,0 l/m 0,0 km/h (0 Bft) O-SO 112 -1,1 C 0,5 C
24.01.2012 18:02 0,4 C 89 % 1021,9 hPa 0,0 l/m 0,0 km/h (0 Bft) O 90 -1,2 C 0,4 C
24.01.2012 18:07 0,4 C 89 % 1022,2 hPa 0,0 l/m 0,0 km/h (0 Bft) O 90 -1,2 C 0,4 C
24.01.2012 18:12 0,4 C 89 % 1022,0 hPa 0,0 l/m 3,6 km/h (1 Bft) SO 135 -1,2 C 0,4 C
24.01.2012 18:17 0,3 C 89 % 1022,0 hPa 0,0 l/m 2,9 km/h (1 Bft) O 90 -1,3 C 0,3 C
24.01.2012 18:22 0,3 C 89 % 1022,1 hPa 0,0 l/m 1,8 km/h (1 Bft) O 90 -1,3 C 0,3 C
24.01.2012 18:27 0,3 C 89 % 1022,2 hPa 0,0 l/m 3,2 km/h (1 Bft) O 90 -1,3 C 0,3 C
24.01.2012 18:32 0,3 C 89 % 1022,1 hPa 0,0 l/m 5,0 km/h (1 Bft) O 90 -1,3 C -1,2 C
24.01.2012 18:37 0,2 C 89 % 1022,2 hPa 0,0 l/m 7,2 km/h (2 Bft) O 90 -1,4 C -2,2 C
24.01.2012 18:42 0,2 C 90 % 1022,3 hPa 0,0 l/m 4,7 km/h (1 Bft) SO 135 -1,2 C -1,2 C
24.01.2012 18:47 0,1 C 90 % 1022,3 hPa 0,0 l/m 7,2 km/h (2 Bft) O-SO 112 -1,3 C -2,4 C
24.01.2012 18:52 0,1 C 90 % 1022,3 hPa 0,0 l/m 6,5 km/h (2 Bft) O 90 -1,3 C -2,1 C
24.01.2012 18:57 0,0 C 90 % 1022,4 hPa 0,0 l/m 5,0 km/h (1 Bft) O 90 -1,4 C -1,6 C
24.01.2012 19:02 -0,1 C 90 % 1022,3 hPa 0,0 l/m 5,0 km/h (1 Bft) O 90 -1,5 C -1,7 C
24.01.2012 19:07 -0,1 C 90 % 1022,6 hPa 0,0 l/m 4,7 km/h (1 Bft) SO 135 -1,5 C -1,6 C
24.01.2012 19:12 -0,1 C 90 % 1022,6 hPa 0,0 l/m 6,1 km/h (2 Bft) O-SO 112 -1,5 C -2,2 C
24.01.2012 19:17 -0,2 C 90 % 1022,5 hPa 0,0 l/m 4,7 km/h (1 Bft) O 90 -1,6 C -1,7 C
24.01.2012 19:22 -0,2 C 90 % 1022,9 hPa 0,0 l/m 0,0 km/h (0 Bft) O 90 -1,6 C -0,2 C
24.01.2012 19:27 -0,4 C 90 % 1022,8 hPa 0,0 l/m 2,2 km/h (1 Bft) O 90 -1,8 C -0,4 C
24.01.2012 19:32 -0,4 C 90 % 1022,6 hPa 0,0 l/m 8,3 km/h (2 Bft) O 90 -1,8 C -3,3 C
24.01.2012 19:37 -0,5 C 90 % 1022,8 hPa 0,0 l/m 4,0 km/h (1 Bft) O 90 -1,9 C -0,5 C
24.01.2012 19:42 -0,4 C 91 % 1022,8 hPa 0,0 l/m 4,0 km/h (1 Bft) O 90 -1,7 C -0,4 C
24.01.2012 19:47 -0,4 C 91 % 1023,0 hPa 0,0 l/m 0,0 km/h (0 Bft) O 90 -1,7 C -0,4 C
24.01.2012 19:52 -0,4 C 91 % 1023,0 hPa 0,0 l/m 2,9 km/h (1 Bft) O 90 -1,7 C -0,4 C
24.01.2012 19:57 -0,2 C 90 % 1023,0 hPa 0,0 l/m 0,0 km/h (0 Bft) O 90 -1,6 C -0,2 C
24.01.2012 20:02 -0,2 C 90 % 1023,0 hPa 0,0 l/m 3,2 km/h (1 Bft) O 90 -1,6 C -0,2 C
24.01.2012 20:07 -0,2 C 90 % 1023,1 hPa 0,0 l/m 6,1 km/h (2 Bft) O 90 -1,6 C -2,3 C
24.01.2012 20:12 -0,2 C 90 % 1023,3 hPa 0,0 l/m 3,6 km/h (1 Bft) O 90 -1,6 C -0,2 C
24.01.2012 20:17 -0,2 C 90 % 1023,3 hPa 0,0 l/m 5,8 km/h (2 Bft) O 90 -1,6 C -2,2 C
24.01.2012 20:22 -0,2 C 90 % 1023,3 hPa 0,0 l/m 4,3 km/h (1 Bft) O 90 -1,6 C -0,2 C
24.01.2012 20:27 -0,2 C 90 % 1023,4 hPa 0,0 l/m 5,8 km/h (2 Bft) O 90 -1,6 C -2,2 C
24.01.2012 20:32 -0,2 C 90 % 1023,6 hPa 0,0 l/m 5,0 km/h (1 Bft) O 90 -1,6 C -1,8 C
24.01.2012 20:37 -0,2 C 90 % 1023,5 hPa 0,0 l/m 4,0 km/h (1 Bft) O 90 -1,6 C -0,2 C
24.01.2012 20:42 -0,2 C 90 % 1023,6 hPa 0,0 l/m 1,1 km/h (1 Bft) O 90 -1,6 C -0,2 C
24.01.2012 20:47 -0,2 C 90 % 1023,6 hPa 0,0 l/m 2,5 km/h (1 Bft) O 90 -1,6 C -0,2 C
24.01.2012 20:52 -0,4 C 90 % 1023,6 hPa 0,0 l/m 0,0 km/h (0 Bft) O 90 -1,8 C -0,4 C
24.01.2012 20:57 -0,4 C 90 % 1023,7 hPa 0,0 l/m 3,6 km/h (1 Bft) O 90 -1,8 C -0,4 C
24.01.2012 21:02 -0,4 C 90 % 1023,7 hPa 0,0 l/m 0,0 km/h (0 Bft) O 90 -1,8 C -0,4 C
24.01.2012 21:07 -0,4 C 90 % 1023,6 hPa 0,0 l/m 2,5 km/h (1 Bft) O 90 -1,8 C -0,4 C
24.01.2012 21:12 -0,3 C 90 % 1023,7 hPa 0,0 l/m 3,2 km/h (1 Bft) O 90 -1,7 C -0,3 C
24.01.2012 21:17 -0,4 C 90 % 1023,8 hPa 0,0 l/m 0,0 km/h (0 Bft) O 90 -1,8 C -0,4 C
24.01.2012 21:22 -0,4 C 90 % 1023,8 hPa 0,0 l/m 2,5 km/h (1 Bft) O 90 -1,8 C -0,4 C
24.01.2012 21:27 -0,4 C 90 % 1023,9 hPa 0,0 l/m 0,0 km/h (0 Bft) O 90 -1,8 C -0,4 C
24.01.2012 21:32 -0,4 C 90 % 1023,8 hPa 0,0 l/m 2,5 km/h (1 Bft) O 90 -1,8 C -0,4 C
24.01.2012 21:37 -0,4 C 89 % 1023,8 hPa 0,0 l/m 0,0 km/h (0 Bft) O 90 -2,0 C -0,4 C
24.01.2012 21:42 -0,5 C 89 % 1023,8 hPa 0,0 l/m 8,3 km/h (2 Bft) O 90 -2,1 C -3,4 C
24.01.2012 21:47 -0,5 C 89 % 1023,7 hPa 0,0 l/m 0,0 km/h (0 Bft) O 90 -2,1 C -0,5 C
24.01.2012 21:52 -0,6 C 89 % 1023,9 hPa 0,0 l/m 2,9 km/h (1 Bft) O 90 -2,2 C -0,6 C
24.01.2012 21:57 -0,6 C 89 % 1023,9 hPa 0,0 l/m 4,0 km/h (1 Bft) O 90 -2,2 C -0,6 C
24.01.2012 22:02 -0,6 C 89 % 1023,9 hPa 0,0 l/m 4,0 km/h (1 Bft) O 90 -2,2 C -0,6 C
24.01.2012 22:07 -0,6 C 89 % 1023,8 hPa 0,0 l/m 5,4 km/h (1 Bft) O 90 -2,2 C -2,5 C
24.01.2012 22:12 -0,7 C 89 % 1024,1 hPa 0,0 l/m 3,2 km/h (1 Bft) O 90 -2,3 C -0,7 C
24.01.2012 22:17 -0,7 C 89 % 1024,1 hPa 0,0 l/m 5,0 km/h (1 Bft) O 90 -2,3 C -2,4 C
24.01.2012 22:22 -0,7 C 89 % 1024,1 hPa 0,0 l/m 5,8 km/h (2 Bft) O 90 -2,3 C -2,7 C
24.01.2012 22:27 -0,8 C 89 % 1024,2 hPa 0,0 l/m 5,8 km/h (2 Bft) O 90 -2,4 C -2,9 C
24.01.2012 22:32 -0,8 C 89 % 1024,3 hPa 0,0 l/m 1,8 km/h (1 Bft) O 90 -2,4 C -0,8 C
24.01.2012 22:37 -0,7 C 90 % 1024,3 hPa 0,0 l/m 0,0 km/h (0 Bft) O 90 -2,1 C -0,7 C
24.01.2012 22:42 -0,7 C 90 % 1024,1 hPa 0,0 l/m 2,5 km/h (1 Bft) O 90 -2,1 C -0,7 C
24.01.2012 22:47 -0,7 C 90 % 1024,2 hPa 0,0 l/m 0,0 km/h (0 Bft) O 90 -2,1 C -0,7 C
24.01.2012 22:52 -0,8 C 90 % 1024,1 hPa 0,0 l/m 0,0 km/h (0 Bft) O 90 -2,2 C -0,8 C
24.01.2012 22:57 -0,7 C 90 % 1024,1 hPa 0,0 l/m 4,0 km/h (1 Bft) O 90 -2,1 C -0,7 C
24.01.2012 23:02 -0,7 C 89 % 1024,2 hPa 0,0 l/m 0,0 km/h (0 Bft) O 90 -2,3 C -0,7 C
24.01.2012 23:07 -0,7 C 89 % 1024,1 hPa 0,0 l/m 0,0 km/h (0 Bft) O 90 -2,3 C -0,7 C
24.01.2012 23:12 -0,7 C 89 % 1024,2 hPa 0,0 l/m 1,8 km/h (1 Bft) O 90 -2,3 C -0,7 C
24.01.2012 23:17 -0,6 C 89 % 1024,0 hPa 0,0 l/m 0,0 km/h (0 Bft) O 90 -2,2 C -0,6 C
24.01.2012 23:22 -0,6 C 89 % 1024,0 hPa 0,0 l/m 0,0 km/h (0 Bft) O 90 -2,2 C -0,6 C
24.01.2012 23:27 -0,6 C 89 % 1024,1 hPa 0,0 l/m 0,0 km/h (0 Bft) O 90 -2,2 C -0,6 C
24.01.2012 23:32 -0,6 C 89 % 1024,3 hPa 0,0 l/m 0,0 km/h (0 Bft) O 90 -2,2 C -0,6 C
24.01.2012 23:37 -0,6 C 89 % 1024,4 hPa 0,0 l/m 0,0 km/h (0 Bft) O 90 -2,2 C -0,6 C
24.01.2012 23:42 -0,6 C 89 % 1024,2 hPa 0,0 l/m 1,4 km/h (1 Bft) O 90 -2,2 C -0,6 C
24.01.2012 23:47 -0,6 C 89 % 1024,3 hPa 0,0 l/m 3,2 km/h (1 Bft) O 90 -2,2 C -0,6 C
24.01.2012 23:52 -0,6 C 89 % 1024,4 hPa 0,0 l/m 2,2 km/h (1 Bft) O 90 -2,2 C -0,6 C
24.01.2012 23:57 -0,7 C 89 % 1024,4 hPa 0,0 l/m 0,0 km/h (0 Bft) O 90 -2,3 C -0,7 C
_ Min-Zeit 22:27 15:32 00:07 - 00:07 - - 22:27 21:42
Minimum _ -0,8 C 89 % 1012,9 hPa - 0,0 km/h (0 Bft) - - -2,4 C -3,4 C
_ Max-Zeit 12:07 05:22 23:37 04:32 19:32 - - 10:47 12:07
Maximum _ 1,9 C 93 % 1024,4 hPa 0,5 l/m 8,3 km/h
O (2 Bft)
- - 0,6 C 1,9 C
Durchschnitt _ 0,9 C 91 % 1018,9 hPa #2,6 l/m 2,1 km/h (1 Bft) O - -0,4 C 0,7 C
(c) by David Heller